This demonstration page uses our WeatherBlox Daily Observations layout. Learn more.

Left ArrowRight Arrow

Hourly Observations for February 22, 2016

Temp ( °F °C ) Dew Point ( °F °C ) Humidity (%) Winds ( mph kmh ) Pressure ( in mb ) Visibility ( mi km ) Precip ( " mm )
12:42 am 00:42 Cloudy 39 4 36 2 87 87 N 8 13 30.33 1027 10 16 0.00 0.00
12:54 am 00:54 Cloudy 40 4.4 36 2.2 86 86 N 6 9 30.27 1025 10 16 0.00 0.00
1:54 am 01:54 Cloudy 39 3.9 35 1.7 86 86 NNE 7 11 30.25 1024 10 16 0.00 0.00
2:54 am 02:54 Cloudy 38 3.3 34 1.1 86 86 N 8 13 30.22 1023 10 16 0.00 0.00
3:14 am 03:14 Cloudy 37 3 34 1 87 87 NNE 8 13 30.27 1025 10 16 0.00 0.00
3:54 am 03:54 Cloudy 38 3.3 33 0.6 83 83 N 7 11 30.20 1023 10 16 0.00 0.00
4:08 am 04:08 Cloudy 37 3 34 1 87 87 NNE 7 11 30.24 1024 10 16 0.00 0.00
4:54 am 04:54 Cloudy 38 3.3 32 0 79 79 NNE 7 11 30.19 1022 10 16 0.00 0.00
5:54 am 05:54 Cloudy 38 3.3 32 0 79 79 N 5 7 30.20 1023 10 16 0.00 0.00
6:54 am 06:54 Cloudy 38 3.3 32 0 79 79 NE 5 7 30.19 1022 10 16 0.00 0.00
7:54 am 07:54 Cloudy 38 3.3 32 0 79 79 SE 5 7 30.18 1022 10 16 0.00 0.00
8:54 am 08:54 Cloudy 38 3.3 32 0 79 79 SSE 3 6 30.19 1022 10 16 0.00 0.00
9:54 am 09:54 Cloudy 39 3.9 32 0 76 76 SSE 5 7 30.19 1023 10 16 0.00 0.00
10:54 am 10:54 Cloudy 40 4.4 32 0 73 73 SSE 7 11 30.18 1022 10 16 0.00 0.00
11:22 am 11:22 Cloudy 39 4 30 -1 70 70 SE 3 6 30.21 1023 10 16 0.00 0.00
11:54 am 11:54 Cloudy 41 5 31 -0.6 67 67 SE 6 9 30.16 1021 10 16 0.00 0.00
12:54 pm 12:54 Cloudy 42 5.6 31 -0.6 65 65 SSE 5 7 30.13 1020 10 16 0.00 0.00
1:54 pm 13:54 Cloudy 44 6.7 32 0 63 63 VRB 7 11 30.10 1019 10 16 0.00 0.00
2:54 pm 14:54 Cloudy 45 7.2 32 0 61 61 SE 8 13 30.07 1018 10 16 0.00 0.00
3:11 pm 15:11 Cloudy 44 6.7 32 0 63 63 VRB 3 6 30.09 1019 10 16 0.00 0.00
3:54 pm 15:54 Cloudy 45 7.2 32 0 61 61 E 5 7 30.06 1018 10 16 0.00 0.00
4:54 pm 16:54 Cloudy 45 7.2 32 0 61 61 ESE 3 6 30.04 1017 9 14 0.00 0.00
5:54 pm 17:54 Mostly Cloudy 43 6.1 32 0 65 65 ESE 7 11 30.03 1017 10 16 0.00 0.00
6:54 pm 18:54 Cloudy 42 5.6 32 0 68 68 E 8 13 30.04 1017 10 16 0.00 0.00
7:54 pm 19:54 Cloudy 42 5.6 33 0.6 71 71 ESE 7 11 30.05 1018 10 16 0.00 0.00
8:54 pm 20:54 Cloudy 41 5 33 0.6 73 73 ESE 6 9 30.07 1018 10 16 0.00 0.00
9:54 pm 21:54 Cloudy 41 5 33 0.6 73 73 ESE 9 15 30.07 1018 10 16 0.00 0.00
10:54 pm 22:54 Cloudy 40 4.4 33 0.6 77 77 SE 12 19 30.06 1018 10 16 0.00 0.00
11:54 pm 23:54 Cloudy 40 4.4 32 0 73 73 SSE 10 17 30.07 1018 10 16 0.00 0.00

Powered by AerisWeather